Time,TemperatureF,DewpointF,PressureIn,WindDirection,WindDirectionDegrees,WindSpeedMPH,WindSpeedGustMPH,Humidity,HourlyPrecipIn,Conditions,Clouds,dailyrainin,SoftwareType,DateUTC
2013-07-08 00:00:00,53.0,51.0,-100.00,WSW,255,9.0,-999.0,93,0.00,,,-99.99,,2013-07-08 07:00:00,
2013-07-08 00:22:00,53.0,51.0,-100.00,WSW,255,9.0,-999.0,93,0.00,,,-99.99,,2013-07-08 07:22:00,
2013-07-08 00:34:00,53.0,51.0,-100.00,WSW,255,9.0,-999.0,93,0.00,,,-99.99,,2013-07-08 07:34:00,
2013-07-08 00:53:00,53.0,51.0,-100.00,WSW,255,9.0,-999.0,93,0.00,,,-99.99,,2013-07-08 07:53:00,
2013-07-08 01:00:00,53.0,51.0,-100.00,WSW,240,6.0,-999.0,93,0.00,,,-99.99,,2013-07-08 08:00:00,
2013-07-08 01:22:00,53.0,51.0,-100.00,WSW,240,6.0,-999.0,93,0.00,,,-99.99,,2013-07-08 08:22:00,
2013-07-08 01:33:00,53.0,51.0,-100.00,WSW,240,6.0,-999.0,93,0.00,,,-99.99,,2013-07-08 08:33:00,
2013-07-08 01:53:00,53.0,51.0,-100.00,WSW,240,6.0,-999.0,93,0.00,,,-99.99,,2013-07-08 08:53:00,
2013-07-08 02:00:00,53.0,51.0,-100.00,WSW,239,6.0,-999.0,93,0.00,,,-99.99,,2013-07-08 09:00:00,
2013-07-08 02:22:00,53.0,51.0,-100.00,WSW,239,6.0,-999.0,93,0.00,,,-99.99,,2013-07-08 09:22:00,
2013-07-08 02:34:00,53.0,51.0,-100.00,WSW,239,6.0,-999.0,93,0.00,,,-99.99,,2013-07-08 09:34:00,
2013-07-08 02:53:00,53.0,51.0,-100.00,WSW,239,6.0,-999.0,93,0.00,,,-99.99,,2013-07-08 09:53:00,
2013-07-08 03:00:00,53.0,51.0,-100.00,SW,225,5.0,-999.0,92,0.00,,,-99.99,,2013-07-08 10:00:00,
2013-07-08 03:22:00,53.0,51.0,-100.00,SW,225,5.0,-999.0,92,0.00,,,-99.99,,2013-07-08 10:22:00,
2013-07-08 03:34:00,53.0,51.0,-100.00,SW,225,5.0,-999.0,92,0.00,,,-99.99,,2013-07-08 10:34:00,
2013-07-08 03:53:00,53.0,51.0,-100.00,SW,225,5.0,-999.0,92,0.00,,,-99.99,,2013-07-08 10:53:00,
2013-07-08 04:00:00,53.0,51.0,-100.00,WNW,285,2.0,-999.0,92,0.00,,,-99.99,,2013-07-08 11:00:00,
2013-07-08 04:33:00,53.0,51.0,-100.00,WNW,285,2.0,-999.0,92,0.00,,,-99.99,,2013-07-08 11:33:00,
2013-07-08 04:53:00,53.0,51.0,-100.00,WNW,285,2.0,-999.0,92,0.00,,,-99.99,,2013-07-08 11:53:00,
2013-07-08 05:00:00,53.0,50.0,-100.00,West,259,5.0,-999.0,92,0.00,,,-99.99,,2013-07-08 12:00:00,
2013-07-08 05:22:00,53.0,50.0,-100.00,West,259,5.0,-999.0,92,0.00,,,-99.99,,2013-07-08 12:22:00,
2013-07-08 05:34:00,53.0,50.0,-100.00,West,259,5.0,-999.0,92,0.00,,,-99.99,,2013-07-08 12:34:00,
2013-07-08 05:53:00,53.0,50.0,-100.00,West,259,5.0,-999.0,92,0.00,,,-99.99,,2013-07-08 12:53:00,
2013-07-08 06:00:00,53.0,50.0,-100.00,WNW,295,2.0,-999.0,92,0.00,,,-99.99,,2013-07-08 13:00:00,
2013-07-08 06:33:00,53.0,50.0,-100.00,WNW,295,2.0,-999.0,92,0.00,,,-99.99,,2013-07-08 13:33:00,
2013-07-08 06:42:00,53.0,50.0,-100.00,WNW,295,2.0,-999.0,92,0.00,,,-99.99,,2013-07-08 13:42:00,
2013-07-08 06:53:00,53.0,50.0,-100.00,WNW,295,2.0,-999.0,92,0.00,,,-99.99,,2013-07-08 13:53:00,
2013-07-08 07:00:00,53.0,50.0,-100.00,North,0,6.0,-999.0,91,0.00,,,-99.99,,2013-07-08 14:00:00,
2013-07-08 07:23:00,53.0,50.0,-100.00,North,0,6.0,-999.0,91,0.00,,,-99.99,,2013-07-08 14:23:00,
2013-07-08 07:34:00,53.0,50.0,-100.00,North,0,6.0,-999.0,91,0.00,,,-99.99,,2013-07-08 14:34:00,
2013-07-08 07:53:00,53.0,50.0,-100.00,North,0,6.0,-999.0,91,0.00,,,-99.99,,2013-07-08 14:53:00,
2013-07-08 08:00:00,53.0,50.0,-100.00,NE,39,1.0,-999.0,91,0.00,,,-99.99,,2013-07-08 15:00:00,
2013-07-08 08:22:00,53.0,50.0,-100.00,NE,39,1.0,-999.0,91,0.00,,,-99.99,,2013-07-08 15:22:00,
2013-07-08 08:33:00,53.0,50.0,-100.00,NE,39,1.0,-999.0,91,0.00,,,-99.99,,2013-07-08 15:33:00,
2013-07-08 08:53:00,53.0,50.0,-100.00,NE,39,1.0,-999.0,91,0.00,,,-99.99,,2013-07-08 15:53:00,
2013-07-08 09:00:00,54.0,51.0,-100.00,NW,325,4.0,-999.0,87,0.00,,,-99.99,,2013-07-08 16:00:00,
2013-07-08 09:22:00,54.0,51.0,-100.00,NW,325,4.0,-999.0,87,0.00,,,-99.99,,2013-07-08 16:22:00,
2013-07-08 09:34:00,54.0,51.0,-100.00,NW,325,4.0,-999.0,87,0.00,,,-99.99,,2013-07-08 16:34:00,
2013-07-08 09:43:00,54.0,51.0,-100.00,NW,325,4.0,-999.0,87,0.00,,,-99.99,,2013-07-08 16:43:00,
2013-07-08 10:00:00,56.0,51.0,-100.00,WSW,242,1.0,-999.0,83,0.00,,,-99.99,,2013-07-08 17:00:00,
2013-07-08 10:54:00,56.0,51.0,-100.00,WSW,242,1.0,-999.0,83,0.00,,,-99.99,,2013-07-08 17:54:00,
2013-07-08 11:00:00,60.0,52.0,-100.00,SSW,213,4.0,-999.0,73,0.00,,,-99.99,,2013-07-08 18:00:00,
2013-07-08 11:45:00,60.0,52.0,-100.00,SSW,213,4.0,-999.0,73,0.00,,,-99.99,,2013-07-08 18:45:00,
2013-07-08 12:00:00,64.0,51.0,-100.00,SSW,193,5.0,-999.0,62,0.00,,,-99.99,,2013-07-08 19:00:00,
2013-07-08 12:41:00,64.0,51.0,-100.00,SSW,193,5.0,-999.0,62,0.00,,,-99.99,,2013-07-08 19:41:00,
2013-07-08 14:00:00,72.0,54.0,-100.00,WSW,240,9.0,-999.0,54,0.00,,,-99.99,,2013-07-08 21:00:00,
2013-07-08 14:46:00,72.0,54.0,-100.00,WSW,240,9.0,-999.0,54,0.00,,,-99.99,,2013-07-08 21:46:00,
2013-07-08 15:00:00,71.0,54.0,-100.00,WSW,240,9.0,-999.0,55,0.00,,,-99.99,,2013-07-08 22:00:00,
2013-07-08 16:00:00,69.0,54.0,-100.00,WSW,246,15.0,-999.0,59,0.00,,,-99.99,,2013-07-08 23:00:00,
2013-07-08 16:48:00,69.0,54.0,-100.00,WSW,246,15.0,-999.0,59,0.00,,,-99.99,,2013-07-08 23:48:00,
2013-07-08 16:57:00,69.0,54.0,-100.00,WSW,246,15.0,-999.0,59,0.00,,,-99.99,,2013-07-08 23:57:00,
2013-07-08 17:00:00,68.0,54.0,-100.00,West,259,16.0,-999.0,61,0.00,,,-99.99,,2013-07-09 00:00:00,
2013-07-08 17:57:00,68.0,54.0,-100.00,West,259,16.0,-999.0,61,0.00,,,-99.99,,2013-07-09 00:57:00,
2013-07-08 18:00:00,-999.0,-99.9,-100.00,WSW,244,14.0,-999.0,66,0.00,,,-99.99,,2013-07-09 01:00:00,
2013-07-08 18:58:00,65.0,54.0,-100.00,WSW,244,14.0,-999.0,66,0.00,,,-99.99,,2013-07-09 01:58:00,
2013-07-08 19:00:00,63.0,53.0,-100.00,WSW,252,19.0,-999.0,70,0.00,,,-99.99,,2013-07-09 02:00:00,
2013-07-08 20:00:00,58.0,53.0,-100.00,SW,226,14.0,-999.0,82,0.00,,,-99.99,,2013-07-09 03:00:00,
2013-07-08 21:00:00,54.0,52.0,-100.00,WSW,250,10.0,-999.0,91,0.00,,,-99.99,,2013-07-09 04:00:00,
2013-07-08 21:22:00,54.0,52.0,-100.00,WSW,250,10.0,-999.0,91,0.00,,,-99.99,,2013-07-09 04:22:00,
2013-07-08 21:34:00,54.0,52.0,-100.00,WSW,250,10.0,-999.0,91,0.00,,,-99.99,,2013-07-09 04:34:00,
2013-07-08 21:53:00,54.0,52.0,-100.00,WSW,250,10.0,-999.0,91,0.00,,,-99.99,,2013-07-09 04:53:00,
2013-07-08 22:00:00,54.0,52.0,-100.00,WSW,246,9.0,-999.0,93,0.00,,,-99.99,,2013-07-09 05:00:00,
2013-07-08 22:22:00,54.0,52.0,-100.00,WSW,246,9.0,-999.0,93,0.00,,,-99.99,,2013-07-09 05:22:00,
2013-07-08 22:34:00,54.0,52.0,-100.00,WSW,246,9.0,-999.0,93,0.00,,,-99.99,,2013-07-09 05:34:00,
2013-07-08 22:52:00,54.0,52.0,-100.00,WSW,246,9.0,-999.0,93,0.00,,,-99.99,,2013-07-09 05:52:00,
2013-07-08 23:00:00,53.0,51.0,-100.00,WSW,255,12.0,-999.0,94,0.00,,,-99.99,,2013-07-09 06:00:00,
2013-07-08 23:34:00,53.0,51.0,-100.00,WSW,255,12.0,-999.0,94,0.00,,,-99.99,,2013-07-09 06:34:00,
2013-07-08 23:53:00,53.0,51.0,-100.00,WSW,255,12.0,-999.0,94,0.00,,,-99.99,,2013-07-09 06:53:00,